Home > Weather > Chattanooga > Past weeks

Flag for U.S.A. Weather for the Past 2 Weeks in Chattanooga, Tennessee, U.S.A.

Now
35 °F

Broken clouds.


Feels Like: 26 °F
Forecast: 22 / 33 °F
Wind: 13 mph from Northwest

Location: Lovell Field

Current Time: Feb 10, 2016 at 5:07:23 PM

Latest Report: Feb 10, 2016 at 3:53 PM


Visibility: 10 mi

Pressure: 30.14 "Hg

Humidity: 32%

Dew point: 8 °F

Location of ChattanoogaLocation

Historic Weather in Chattanooga — Graph

°F

Chattanooga Temperature Yesterday

Maximum temperature yesterday: 33 °F (at 12:53 AM)
Minimum temperature yesterday: 25 °F (at 11:53 PM)
Average temperature yesterday: 29 °F

High & Low Weather Summary for the Past Weeks

 TemperatureHumidityPressure
High75 °F (Feb 2, 2:53 PM)96% (Jan 28, 5:53 AM)30.48 "Hg (Jan 28, 5:53 AM)
Low22 °F (Feb 10, 5:53 AM)22% (Feb 7, 4:53 PM)29.75 "Hg (Feb 8, 1:53 PM)
Average45 °F62%30.06 "Hg
* Reported Jan 26 3:00 PM — Feb 10 3:53 PM, Chattanooga, Weather by CustomWeather, © 2016

Note: Actual official high and low records may vary slightly from our data, if they occured in-between our weather recording intervals... More about our weather records

Advertising

Chattanooga Weather History for the Previous 24 Hours

 ConditionsComfort  
Time TempWeatherWind HumidityBarometerVisibility
3:53 PM
Wed, Feb 10
35 °FBroken clouds.13 mph32%30.14 "Hg10 mi
2:53 PM34 °FBroken clouds.12 mph34%30.14 "Hg10 mi
1:53 PM32 °FScattered clouds.9 mph38%30.16 "Hg10 mi
12:53 PM29 °FScattered clouds.12 mph41%30.18 "Hg10 mi
11:53 AM27 °FLight snow. Partly sunny.10 mph49%30.19 "Hg9 mi
10:53 AM26 °FBroken clouds.10 mph50%30.19 "Hg10 mi
9:53 AM25 °FBroken clouds.8 mph50%30.17 "Hg10 mi
8:53 AM24 °FBroken clouds.7 mph65%30.16 "Hg10 mi
7:53 AM23 °FPartly sunny.5 mph57%30.15 "Hg10 mi
6:53 AM23 °FPassing clouds.9 mph53%30.14 "Hg7 mi
5:53 AM22 °FOvercast.7 mph62%30.13 "Hg7 mi
4:53 AM23 °FOvercast.9 mph55%30.12 "Hg10 mi
3:53 AM23 °FOvercast.9 mph53%30.11 "Hg10 mi
2:53 AM23 °FPassing clouds.9 mph53%30.09 "Hg10 mi
1:53 AM24 °FOvercast.14 mph50%30.09 "Hg10 mi
12:53 AM25 °FLight snow. Mostly cloudy.10 mph69%30.07 "Hg8 mi
11:53 PM
Tue, Feb 9
25 °FLight snow. Ice fog.8 mph69%30.07 "Hg5 mi
10:53 PM26 °FLight snow. Mostly cloudy.8 mph63%30.07 "Hg8 mi
9:53 PM26 °FLight snow. Mostly cloudy.12 mph60%30.06 "Hg9 mi
8:53 PM27 °FOvercast.10 mph55%30.06 "Hg9 mi
7:53 PM27 °FLight snow. Mostly cloudy.8 mph63%30.05 "Hg9 mi
6:53 PM27 °FLight snow. Mostly cloudy.8 mph69%30.02 "Hg9 mi
5:53 PM29 °FPartly sunny.12 mph61%29.98 "Hg10 mi
Weather by CustomWeather, © 2016

See weather overviewHow to use our weather pages